OBJECT F, 69507

Orbit data source: Space-Track

You're viewing an Uncataloged Satellite

Recently launched and/or uncataloged satellites may have evolving metadata. Metadata may include but not limited to: Owner, Maufacturer, Bus, Motor, and Mission.

OBJECT F, 69507 is a satellite in SSO that was launched on Fri, 12 Jun 2026 UTC via an FALCON 9 launch vehicle from the Tanegashima Space Center (TNSTA). Unknown objects in Earth's orbit typically refer to objects detected orbiting the Earth but have not yet been identified or cataloged. These objects could be anything from previously untracked satellites, spent rocket stages, debris from satellite collisions, or even natural meteoroids temporarily captured by Earth's gravity.

Loading next visibility...
Identifier
69507, 2026-132F
Orbit
SSO
Country
Flag of TBDTBD
Related business
None
Manufacturer
Unknown
Mission
Operational spacecraft
Bus & Motor
Unknown
Mass
Unknown
Launch date (UTC)
2026-06-12 (1 day ago)
Launch vehicle
FALCON 9
Launch site
Tanegashima Space Center (TNSTA)
Object type
Unknown
Shape & HBR
Unknown
Radar Cross Section
RCS unknown

Expand to show TLE details & history
Last TLE update: 9 hours ago

TLE from 9 hours ago
0 OBJECT F
1 69507U 26132F   26164.41540372  .00003170  00000-0  25250-3 0  9994
2 69507  97.6869 228.1362 0010915 319.8335  40.2082 15.01040982   204
Epoch: 2026-06-13T09:58Z
TLE epoch observation values (Epoch: 2026-06-13T09:58:10.881Z)
Latitude
0.00005°
Longitude
176.86003°
Altitude
560.957 km
Speed
7.584 km/s
True Right ascension
15h 12m 32s
True Declination
0° 00' 00"
Sunlit
Object was in full shadow at epoch
Visualization orbit readout
Latitude
Unknown
Longitude
Unknown
Altitude
Unknown
Speed
Unknown
Apparent Right ascension
Unknown
Apparent Declination
Unknown
Sunlit
N/A
Visualization observer readout
Local Sidereal Time
04:58:02
Azimuth
Unknown
Elevation
Unknown
Doppler factor
Unknown
Orbital elements
Apogee altitude
568.262 km
Perigee altitude
553.115 km
Semi-major axis
6,938.825 km
Eccentricity
0.00109
Inclination
97.6869°
RAAN
228.1362°
Arg. of periapsis
319.8335°
True anomaly
40.28903°
Mean anomaly
40.2082°
Eccentric anomaly
40.24861°
Mean motion
3.75504 °/min
Orbital period
95.87 mins
BSTAR
0.0002525
Loading maneuver chart data...
Computing Atmospheric mass density...
Loading historical data...
Loading historical data...
Loading historical data...
Loading historical data...
Loading historical data...
Loading historical data...
Loading historical data...
Other satellites on launch #132 in the year 2026 (2026-06-12 UTC)

Documentation

Showing up to 5 results
|